Weather History for KIBM - May, 2013

Change the Weather History Date:

Wednesday, May 15, 2013

  Actual Average (KSNY) Record (KSNY)
Temperature  
Mean Temperature 65 °F 57 °F  
Max Temperature 79 °F 71 °F 87 °F (1984)
Min Temperature 51 °F 43 °F 30 °F (1997)
Degree Days  
Heating Degree Days 0 8  
Month to date heating degree days 153  
Since 1 July heating degree days 6065  
Cooling Degree Days 0 1  
Month to date cooling degree days 6  
Year to date cooling degree days 7  
Growing Degree Days 15 (Base 50)    
Moisture  
Dew Point 42 °F    
Average Humidity 43    
Maximum Humidity 74    
Minimum Humidity 22    
Precipitation  
Precipitation 0.00 in 0.09 in 0.95 in (1952)
Month to date precipitation 1.46  
Year to date precipitation 5.13  
Sea Level Pressure  
Sea Level Pressure 29.94 in    
Wind  
Wind Speed 7 mph (SE)    
Max Wind Speed 16 mph    
Max Gust Speed 18 mph    
Visibility 10 miles    
Events Rain    
T = Trace of Precipitation, MM = Missing Value Source: NWS Daily Summary

Daily Weather History Graph

Daily Weather History Graph

Search for Another Location

Airport or City:

Trip Planner

Search our weather history database for the weather conditions in past years. The results will help you decide how hot, cold, wet, or windy it might be!

Date:

Astronomy

May. 15, 2013 Rise Set
Actual Time 6:36 AM CDT 9:06 PM CDT
Civil Twilight 6:04 AM CDT 9:38 PM CDT
Nautical Twilight 5:25 AM CDT 10:17 PM CDT
Astronomical Twilight 4:41 AM CDT 11:01 PM CDT
Moon 11:14 AM CDT (5/15) 12:53 AM CDT (5/15)
Length of Visible Light 15h 33m
Length of Day
14h 30m
Waxing Crescent, 27% of the Moon is Illuminated
May 15
Waxing Crescent
May 17
First Quarter
May 24
Full
May 31
Last Quarter
Jun 8
New

Hourly Weather History & Observations

Time (CDT) Temp. Dew Point Humidity Pressure Visibility Wind Dir Wind Speed Gust Speed Precip Events Conditions
12:15 AM 66.0 °F 39.4 °F 38% 29.94 in 10.0 mi North 9.2 mph - N/A   Clear
12:35 AM 67.6 °F 39.0 °F 35% 29.93 in 10.0 mi ESE 3.5 mph - N/A   Clear
12:55 AM 62.6 °F 40.3 °F 44% 29.93 in 10.0 mi South 6.9 mph - N/A   Clear
1:35 AM 60.3 °F 41.0 °F 49% 29.92 in 10.0 mi South 10.4 mph - N/A   Clear
1:55 AM 59.0 °F 41.0 °F 51% 29.92 in 10.0 mi SSE 5.8 mph - N/A   Clear
2:15 AM 60.4 °F 41.0 °F 49% 29.93 in 10.0 mi SSE 10.4 mph - N/A   Clear
2:35 AM 60.6 °F 41.9 °F 50% 29.92 in 10.0 mi SSE 12.7 mph - N/A   Clear
2:55 AM 59.0 °F 42.3 °F 54% 29.92 in 10.0 mi South 6.9 mph - N/A   Clear
3:15 AM 56.8 °F 42.4 °F 59% 29.93 in 10.0 mi SSW 4.6 mph - N/A   Clear
3:35 AM 57.4 °F 42.8 °F 58% 29.93 in 10.0 mi South 9.2 mph - N/A   Clear
3:55 AM 56.8 °F 43.5 °F 61% 29.94 in 10.0 mi South 10.4 mph - N/A   Clear
4:15 AM 58.5 °F 45.9 °F 63% 29.93 in 10.0 mi South 13.8 mph - N/A   Clear
4:35 AM 57.6 °F 46.4 °F 66% 29.93 in 10.0 mi South 12.7 mph - N/A   Clear
4:55 AM 56.5 °F 46.4 °F 69% 29.92 in 10.0 mi South 10.4 mph - N/A   Clear
5:15 AM 55.8 °F 45.9 °F 69% 29.93 in 10.0 mi South 6.9 mph - N/A   Clear
5:35 AM 55.2 °F 45.5 °F 70% 29.93 in 10.0 mi WSW 5.8 mph - N/A   Clear
5:55 AM 55.6 °F 44.6 °F 67% 29.93 in 10.0 mi SW 6.9 mph - N/A   Clear
6:15 AM 53.6 °F 44.4 °F 71% 29.94 in 10.0 mi SSW 5.8 mph - N/A   Clear
6:35 AM 51.6 °F 43.5 °F 74% 29.94 in 10.0 mi Calm Calm - N/A   Clear
6:55 AM 51.8 °F 43.5 °F 73% 29.94 in 10.0 mi West 6.9 mph - N/A   Clear
7:15 AM 51.4 °F 43.3 °F 74% 29.94 in 10.0 mi WSW 3.5 mph - N/A   Clear
7:35 AM 52.5 °F 43.9 °F 72% 29.95 in 10.0 mi Calm Calm - N/A   Clear
7:55 AM 56.5 °F 43.7 °F 62% 29.96 in 10.0 mi Calm Calm - N/A   Clear
8:15 AM 59.4 °F 45.5 °F 60% 29.97 in 10.0 mi SSE 5.8 mph - N/A   Clear
8:35 AM 59.9 °F 46.2 °F 61% 29.97 in 10.0 mi SSE 4.6 mph - N/A   Scattered Clouds
8:55 AM 64.9 °F 44.2 °F 47% 29.97 in 10.0 mi SSE 3.5 mph - N/A   Clear
9:15 AM 66.6 °F 43.3 °F 43% 29.98 in 10.0 mi ESE 4.6 mph - N/A   Clear
9:35 AM 68.2 °F 43.9 °F 41% 29.98 in 10.0 mi NE 5.8 mph - N/A   Clear
9:55 AM 70.2 °F 46.8 °F 43% 29.99 in 10.0 mi ENE 4.6 mph - N/A   Clear
10:15 AM 71.6 °F 42.3 °F 35% 29.99 in 10.0 mi East 5.8 mph 16.1 mph N/A   Scattered Clouds
10:35 AM 72.1 °F 43.9 °F 36% 29.99 in 10.0 mi ESE 11.5 mph 16.1 mph N/A   Scattered Clouds
10:55 AM 72.5 °F 41.2 °F 32% 29.99 in 10.0 mi ESE 10.4 mph - N/A   Clear
11:15 AM 73.6 °F 41.0 °F 31% 29.99 in 10.0 mi ESE 10.4 mph 16.1 mph N/A   Clear
11:35 AM 73.8 °F 40.6 °F 30% 29.99 in 10.0 mi East 8.1 mph - N/A   Clear
11:55 AM 74.1 °F 40.5 °F 30% 29.98 in 10.0 mi East 8.1 mph - N/A   Clear
12:15 PM 75.2 °F 40.3 °F 28% 29.98 in 10.0 mi ESE 8.1 mph - N/A   Clear
12:55 PM 75.6 °F 39.4 °F 27% 29.97 in 10.0 mi East 9.2 mph - N/A   Clear
1:15 PM 76.6 °F 39.2 °F 26% 29.97 in 10.0 mi SE 9.2 mph - N/A   Clear
1:35 PM 76.8 °F 38.7 °F 25% 29.96 in 10.0 mi East 9.2 mph 17.3 mph N/A   Clear
1:55 PM 77.2 °F 38.5 °F 25% 29.96 in 10.0 mi East 5.8 mph - N/A   Clear
2:15 PM 76.8 °F 38.3 °F 25% 29.96 in 10.0 mi East 8.1 mph - N/A   Clear
2:35 PM 77.2 °F 37.6 °F 24% 29.95 in 10.0 mi Calm Calm - N/A   Clear
2:55 PM 78.4 °F 37.6 °F 23% 29.94 in 10.0 mi ESE 13.8 mph - N/A   Clear
3:15 PM 78.3 °F 37.6 °F 23% 29.94 in 10.0 mi East 6.9 mph 16.1 mph N/A   Clear
3:35 PM 78.8 °F 37.0 °F 22% 29.93 in 10.0 mi ENE 8.1 mph 16.1 mph N/A   Clear
3:55 PM 79.5 °F 36.9 °F 22% 29.93 in 10.0 mi ENE 11.5 mph 16.1 mph N/A   Clear
4:15 PM 77.7 °F 37.8 °F 24% 29.92 in 10.0 mi ESE 10.4 mph - N/A   Clear
4:35 PM 77.2 °F 37.8 °F 24% 29.92 in 10.0 mi SSE 6.9 mph 16.1 mph N/A   Clear
4:55 PM 78.8 °F 38.1 °F 23% 29.91 in 10.0 mi East 8.1 mph - N/A   Clear
5:15 PM 77.4 °F 38.7 °F 25% 29.90 in 10.0 mi East 12.7 mph 16.1 mph N/A   Clear
5:35 PM 77.9 °F 38.3 °F 24% 29.90 in 10.0 mi ESE 5.8 mph 9.2 mph N/A   Clear
5:55 PM 75.9 °F 38.5 °F 26% 29.90 in 10.0 mi East 8.1 mph - N/A   Clear
6:15 PM 74.7 °F 39.6 °F 28% 29.90 in 10.0 mi East 5.8 mph - N/A   Clear
6:35 PM 73.6 °F 40.5 °F 30% 29.90 in 10.0 mi ESE 10.4 mph - N/A   Clear
6:55 PM 73.4 °F 40.1 °F 30% 29.91 in 10.0 mi SE 6.9 mph - N/A   Clear
7:15 PM 72.1 °F 41.0 °F 32% 29.91 in 10.0 mi SE 4.6 mph - N/A   Clear
7:35 PM 70.0 °F 43.9 °F 39% 29.91 in 10.0 mi SE 4.6 mph - N/A   Clear
7:55 PM 69.4 °F 44.4 °F 41% 29.92 in 10.0 mi SE 4.6 mph - N/A   Clear
8:15 PM 68.5 °F 45.0 °F 43% 29.92 in 10.0 mi ESE 3.5 mph - N/A   Clear
8:35 PM 67.6 °F 45.3 °F 45% 29.92 in 10.0 mi South 6.9 mph - N/A   Clear
8:55 PM 68.4 °F 41.2 °F 37% 29.93 in 10.0 mi SW 6.9 mph - N/A   Clear
9:15 PM 67.1 °F 40.8 °F 38% 29.93 in 10.0 mi WSW 5.8 mph - N/A   Clear
9:35 PM 66.6 °F 41.0 °F 39% 29.93 in 10.0 mi Calm Calm - N/A   Mostly Cloudy
9:55 PM 67.3 °F 39.7 °F 36% 29.93 in 10.0 mi Calm Calm - N/A   Scattered Clouds
10:15 PM 68.0 °F 39.0 °F 35% 29.94 in 10.0 mi SW 6.9 mph - N/A   Mostly Cloudy
10:35 PM 65.1 °F 43.0 °F 45% 29.95 in 10.0 mi SW 6.9 mph - N/A   Mostly Cloudy
10:55 PM 65.1 °F 42.3 °F 43% 29.95 in 10.0 mi SW 11.5 mph 16.1 mph N/A   Scattered Clouds
11:15 PM 64.6 °F 43.2 °F 46% 29.96 in 10.0 mi SW 11.5 mph 18.4 mph N/A   Mostly Cloudy
11:35 PM 63.7 °F 44.2 °F 49% 29.96 in 10.0 mi South 16.1 mph - N/A   Mostly Cloudy
11:55 PM 64.8 °F 43.5 °F 46% 29.94 in 10.0 mi East 5.8 mph - N/A Rain Light Rain